Regional Weather Roundup
Issued by NWS

Home | Current Version | Previous Version | Graphics & Text | Print | Product List | Glossary On
Versions: 1 2 3 4 5 6 7 8 9 10 11 12 13 14 15 16 17 18 19 20 21 22 23 24 25 26 27 28 29 30 31 32 33 34 35 36 37 38 39 40 41 42 43 44 45 46 47 48 49 50
000
ASUS43 KMPX 180210
RWRMN
WEATHER ROUNDUP FOR MINNESOTA
NATIONAL WEATHER SERVICE TWIN CITIES/CHANHASSEN MN
900 PM CDT WED SEP 17 2014


NOTE: "FAIR" INDICATES FEW OR NO CLOUDS BELOW 12,000 FEET WITH NO
SIGNIFICANT WEATHER AND/OR OBSTRUCTIONS TO VISIBILITY. N/A MEANS
CURRENT SKY AND/OR WEATHER CONDITIONS ARE NOT AVAILABLE.

MNZ060>063-068>070-180300-
   Twin Cities Metro

CITY           SKY/WX    TMP DP  RH WIND       PRES   REMARKS
TWIN CITIES    PTCLDY    66  52  60 E5        29.99R
ST PAUL        CLEAR     60  55  83 CALM      29.99R
CRYSTAL        CLEAR     59  54  83 CALM      29.98R
BLAINE         CLEAR     61  57  88 CALM      29.99
LAKEVILLE      CLEAR     55  54  94 CALM      29.99R
EDEN PRAIRIE     N/A    N/A N/A N/A MISG      29.98R
SOUTH ST PAUL  CLEAR     62  56  82 CALM      29.98R
LAKE ELMO      FAIR      55  54  94 CALM      30.00R
$$
MNZ001>005-007-008-013>017-022>024-027-028-180300-
   Northwest Minnesota

CITY           SKY/WX    TMP DP  RH WIND       PRES   REMARKS
BEMIDJI        CLEAR     50  45  81 NE7       30.05R
HALLOCK        CLEAR     46  43  87 E8        30.07S
ROSEAU         CLEAR     43  37  81 E6        30.10R
WARROAD        MOCLDY    46  41  81 E12       30.11R
THIEF RVR FALL CLEAR     50  43  76 NE13      30.06R
CROOKSTON      CLEAR     52  45  76 NE6       30.05R
FOSSTON        CLEAR     50  43  76 CALM      30.05R
DETROIT LAKES  CLEAR     59  52  77 NE8       30.03R
MOORHEAD       CLEAR     57  55  94 NE6       30.01R
PARK RAPIDS    CLEAR     58  50  75 NE7       30.02R
MAHNOMEN       FAIR      52  47  84 NE7       30.02S
$$
MNZ006-009>011-018-025>026-180300-
   North Central Minnesota

CITY           SKY/WX    TMP DP  RH WIND       PRES   REMARKS
BAUDETTE       CLEAR     41  37  86 NE5       30.11R
FLAG ISLAND    PTCLDY    45  36  70 E3        30.11R
INTL FALLS     CLEAR     42  37  82 NE3       30.10S
WASKISH        CLEAR     45  41  87 CALM      30.09R
BIG FORK       CLEAR     46  43  87 NE6       30.09R
LONGVILLE      CLEAR     52  50  93 NE5       30.03R
GRAND RAPIDS   MOCLDY    50  43  76 E9        30.07R
CRANE LAKE     PTCLDY    41  39  93 CALM      30.13R
ORR            CLEAR     43  37  81 CALM      30.08R
COOK           PTCLDY    46  43  87 CALM      30.10R
WALKER         FAIR      53  49  87 NE3       30.03R
$$
MNZ012-019>021-037-180300-
   Northeast Minnesota

CITY           SKY/WX    TMP DP  RH WIND       PRES   REMARKS
DULUTH         CLOUDY    45  40  82 E17G24    30.10R
ELY            CLOUDY    45  43  93 SE7       30.11R
HIBBING        CLOUDY    48  42  80 E10       30.10R
EVELETH        CLOUDY    45  41  87 SE7       30.11R
DULUTH HARBOR  CLOUDY    50  45  81 NE23      30.12R
TWO HARBORS    CLOUDY    45  37  76 NE6       30.11R
SILVER BAY     PTCLDY    43  43 100 NE7       30.12R
GRAND MARAIS     N/A     44  39  82 NE3       30.15R
G MARAIS ARPRT CLOUDY    37  34  87 E5        30.13R
$$
MNZ029>031-032-039>041-046>048-054>057-064-180300-
   West Central Minnesota

CITY           SKY/WX    TMP DP  RH WIND       PRES   REMARKS
FERGUS FALLS   CLEAR     57  48  72 CALM      29.99R
WHEATON        CLEAR     61  46  59 NE5       30.00R
MORRIS         CLEAR     61  54  77 NE5       29.98R
ALEXANDRIA     CLEAR     59  53  80 CALM      30.01R
ELBOW LAKE     FAIR      59  55  85 NE3       29.99R
WADENA         MOCLDY    59  52  77 NE6       30.01R
GLENWOOD       CLEAR     57  54  88 NE5       30.00R
APPLETON       PTCLDY    61  54  77 CALM      29.98R
BENSON         PTCLDY    61  55  82 E3        29.98R
ORTONVILLE     CLEAR     61  52  72 CALM      29.98R
MADISON        CLEAR     61  55  82 N3        29.98R
WILLMAR        FAIR      63  54  72 E3        30.00R
$$
MNZ033>034-036-042>043-049>051-058-059-180300-
   Central Minnesota

CITY           SKY/WX    TMP DP  RH WIND       PRES   REMARKS
ST CLOUD       CLEAR     58  54  86 CALM      29.99R
SAUK CENTRE    FAIR      57  52  83 CALM      30.00R
PAYNESVILLE    CLEAR     54  53  95 CALM      30.00R
AITKIN         MOCLDY    50  45  81 E9        30.04R
PINE RIVER     CLEAR     57  52  82 NE3       30.06R
BRAINERD       CLEAR     56  51  84 E9        30.02R
STAPLES        CLEAR     57  50  77 CALM      30.01R
LONG PRAIRIE   FAIR      55  52  88 CALM      30.01R
LITTLE FALLS   CLEAR     54  52  94 CALM      30.00R
LITCHFIELD     CLEAR     63  57  82 CALM      30.00R
BUFFALO        CLEAR     58  53  86 CALM      30.00R
MAPLE LAKE     CLEAR     58  57  96 CALM      30.00R
$$
MNZ037-044-045-052-053-180300-
   East Central Minnesota

CITY           SKY/WX    TMP DP  RH WIND       PRES   REMARKS
PRINCETON      CLEAR     55  54  94 CALM      29.99R
MORA           PTCLDY    46  43  87 CALM      30.07R
CAMBRIDGE      CLEAR     61  50  67 NE8       30.00R
RUSH CITY      LGT RAIN  52  47  85 NE8       30.04R
MOOSE LAKE     CLOUDY    46  43  87 NE10G17   30.06R
HINCKLEY       CLOUDY    50  46  87 NE6       30.06R
CLOQUET        CLOUDY    46  39  76 E10G20    30.09R
MCGREGOR       CLOUDY    46  45  93 E12       30.07R
$$
MNZ071>073-080-081-089-090-097-098-180300-
   Southwest Minnesota

CITY           SKY/WX    TMP DP  RH WIND       PRES   REMARKS
MONTEVIDEO     CLEAR     63  55  77 CALM      29.99R
GRANITE FALLS  CLEAR     59  54  82 CALM      29.99R
CANBY          PTCLDY    59  56  89 W3        29.99R
MARSHALL       CLEAR     64  52  63 E3        29.97R
REDWOOD FALLS  CLEAR     65  55  70 E3        29.97R
OLIVIA         CLEAR     63  52  67 CALM      29.98R
PIPESTONE      CLEAR     63  55  77 CALM      29.99R
WINDOM         CLEAR     61  54  77 CALM      29.99R
WORTHINGTON    PTCLDY    63  55  77 NE6       29.99R
JACKSON        CLEAR     61  54  77 NE5       29.99R
TRACY          CLEAR     62  56  82 CALM      29.99R
SLAYTON        CLEAR     61  54  77 CALM      30.00R
$$
MNZ065>067-074>077-082>085-091>093-180300-
   South Central Minnesota

CITY           SKY/WX    TMP DP  RH WIND       PRES   REMARKS
MANKATO        CLEAR     64  52  63 E5        29.98R
NEW ULM        CLEAR     64  55  72 E3        29.98R
ST JAMES       CLEAR     61  55  82 NE5       29.99R
FAIRMONT       PTCLDY    63  52  67 E6        29.98R
GLENCOE        CLEAR     60  54  79 CALM      29.99R
FARIBAULT      CLEAR     57  52  82 CALM      29.99R
OWATONNA       CLEAR     59  54  82 CALM      29.99R
WASECA         CLEAR     55  50  82 E3        30.00R
ALBERT LEA     CLEAR     57  55  94 CALM      29.99R
$$
MNZ078>079-086>088-094>096-180300-
   Southeast Minnesota

CITY           SKY/WX    TMP DP  RH WIND       PRES   REMARKS
ROCHESTER      CLEAR     59  51  75 S5        30.01R
RED WING       CLEAR     57  54  88 CALM      29.98R
STANTON        CLEAR     58  54  87 CALM      29.98R FOG
DODGE CENTER   PTCLDY    61  54  77 CALM      30.00R
WINONA         CLEAR     59  57  94 CALM      30.00R
AUSTIN         CLEAR     57  52  82 CALM      29.99R
PRESTON        CLEAR     60  58  92 CALM      30.01R
$$
ABBREVIATIONS USED IN REMARKS
   TC - TEMPERATURES IN CELSIUS
  WCI - WIND CHILL INDEX
   HX - HEAT INDEX
  VSB - VISIBILITY
$$


USA.gov is the U.S. government's official web portal to all federal, state and local government web resources and services.